Torna al catalogo

STARLINK-34556

AttivoComunicazioniVLEO
NORAD 64733·PAYLOAD·🇺🇸 United States

Lanciato Jul 2, 2025 da Cape Canaveral Space Force Station

Loading…

Prossimi Passaggi (prossime 24 ore)

TLE

AggiornatoSource: CelesTrak SupGP

Epoca: Sep 14, 2026, 20:45 UTC

1 64733C 25144K   26257.86506944  .00022323  00000+0  65991-3 0  2574
2 64733  53.1595  15.7362 0001239  81.1655  96.7309 15.34361751    19

Traccia STARLINK-34556 in tempo reale con AllMySat

Download on the App Store